User: anonymous   Login
Location: Roanoke
(37.2710°N, 79.9420°W)
Time: 15:56:37
(UTC-05:00)
Language:

Explorer 7 - Orbit

View from above orbital plane
View from above orbital plane
View from above satellite
View from above satellite

Ground track
Ground track

The orbit data is extracted from the following two-line orbital elements,

1    22U 59009A   19322.48683395  .00000103  00000-0  30950-4 0  9995
2    22  50.2855  16.4969 0140091 169.0335 191.3720 14.94990478193616
Epoch (UTC): 18 November 2019 11:41:02
Eccentricity: 0.0140091
inclination: 50.2855°
perigee height: 485 km
apogee height: 680 km
right ascension of ascending node: 16.4969°
argument of perigee: 169.0335°
revolutions per day: 14.94990478
mean anomaly at epoch: 191.3720°
orbit number at epoch: 19361

The dashed part of the orbit path shows where the satellite is in the earth's shadow,  

DLR